Location: Nirvana
(45.0297°N, 77.2628°W)
Time: 22:15:02
(UTC-05:00)

Envisat - Visible Passes

Search period start: 20 February 2019 00:00
Search period end: 02 March 2019 00:00
Orbit: 764 x 766 km, 98.2° (Epoch: 20 February)

Date Brightness Start Highest point End Pass type
(mag) Time Alt. Az. Time Alt. Az. Time Alt. Az.
20 Feb 3.2 18:53:19 10° S 18:58:23 76° WSW 19:03:30 10° NNW visible
21 Feb 3.2 18:16:48 10° SE 18:21:42 51° ENE 18:26:39 10° N visible
21 Feb 5.5 19:57:14 10° SW 20:01:01 21° W 20:04:51 10° NW visible
22 Feb 6.2 06:25:02 10° NE 06:27:58 15° E 06:30:53 10° SE visible
22 Feb 4.2 19:19:10 10° S 19:24:00 44° W 19:28:52 10° NNW visible
23 Feb 3.0 18:42:06 10° SSE 18:47:11 87° ENE 18:52:18 10° NNW visible
23 Feb 6.1 20:24:56 10° WSW 20:26:53 12° W 20:28:49 10° WNW visible
24 Feb 5.2 19:45:30 10° SSW 19:49:43 26° W 19:53:58 10° NW visible
25 Feb 6.5 06:14:42 10° ENE 06:16:36 12° E 06:18:30 10° ESE visible
25 Feb 3.8 19:07:47 10° S 19:12:45 55° W 19:17:45 10° NNW visible
26 Feb 3.0 18:30:57 10° SSE 18:35:59 70° ENE 18:41:04 10° N visible
26 Feb 5.9 20:12:35 10° SW 20:15:31 15° W 20:18:29 10° NW visible
27 Feb 4.8 19:33:53 10° SSW 19:38:24 32° W 19:42:59 10° NNW visible
28 Feb 3.3 18:56:27 10° S 19:01:31 70° WSW 19:06:36 10° NNW visible
01 Mar 3.1 18:19:51 10° SSE 18:24:48 56° ENE 18:29:47 10° N visible
01 Mar 5.7 20:00:35 10° SW 20:04:11 19° W 20:07:48 10° NW visible
